DIRECTV 10 (31862 NORAD) Tracking and Keplerian Element Data

This shows tracking and keplerian element data for the satellite.

Feedback or suggestion? Click here.




ElementValue
Catalog31862
NameDIRECTV 10
Epoch Orbit1809
Epoch Day344.06699648
Epoch Year2018
RAAN224.3926
Inclination0.03
Eccentricity3.44E-05
Argument of Perigee273.605
Mean Anonmoly222.0164
Mean Motion1.00272307
Decay Rate-9.8E-07
L11 31862U 07032A 18344.06699648 -.00000098 00000-0 00000-0 0 9998
L22 31862 0.0300 224.3926 0000344 273.6050 222.0164 1.00272307 18094

Live tracking and technical data element details for DIRECTV 10 (NORAD 31862). DIRECTV 10 can be tracked NOW for your location showing map with azimuth and elevation plus other details from your city location.

Track the satellite on the map from your city or location and see movement details for azimuth, elevation, latitude, longitude, range, height, and movement on the map or in text.







IsCatalogInMostPopularTable: catalog: 31862, numindb: 63
Update: records affected: 1



GetName: 31862 DIRECTV 10

Hit Count: updated at: Thu, 13 Dec 2018 04:59:17 GMT